Weather History for Asheville, NC

Change the Weather History Date:

Thursday, October 4, 2012

  Actual Average Record
Temperature  
Mean Temperature 65 °F 60 °F  
Max Temperature 75 °F 71 °F 86 °F (1986)
Min Temperature 54 °F 49 °F 22 °F (1895)
Degree Days  
Heating Degree Days 0 6  
Month to date heating degree days 5 21  
Since 1 July heating degree days 31 78  
Cooling Degree Days 0 1  
Month to date cooling degree days 4 4  
Year to date cooling degree days 1022 856  
Growing Degree Days 16 (Base 50)    
Moisture  
Dew Point 55 °F    
Average Humidity 68    
Maximum Humidity 93    
Minimum Humidity 43    
Precipitation  
Precipitation 0.00 in 0.11 in 5.18 in (1964)
Month to date precipitation 2.84 0.43  
Year to date precipitation 38.26 35.85  
Snow  
Snow 0.00 in 0.00 in 0.00 in ()
Month to date snowfall 0.0 0.0  
Since 1 July snowfall 0.0 0.0  
Since 1 September snowfall 0.0 0.0  
Snow Depth 0.00 in    
Sea Level Pressure  
Sea Level Pressure 30.23 in    
Wind  
Wind Speed 6 mph (NNW)    
Max Wind Speed 17 mph    
Max Gust Speed 23 mph    
Visibility 10 miles    
Events      
T = Trace of Precipitation, MM = Missing Value Source: NWS Daily Summary

Daily Weather History Graph

Daily Weather History Graph

Search for Another Location

Airport:

Trip Planner

Search our weather history database for the weather conditions in past years. The results will help you decide how hot, cold, wet, or windy it might be!

Date:

Astronomy

Oct. 04, 2012 Rise Set
Actual Time 7:27 AM EDT 7:09 PM EDT
Civil Twilight 7:02 AM EDT 7:34 PM EDT
Nautical Twilight 6:32 AM EDT 8:03 PM EDT
Astronomical Twilight 6:03 AM EDT 8:33 PM EDT
Moon 9:53 PM EDT (10/4) 11:34 AM EDT (10/4)
Length of Visible Light 12h 32m
Length of Day
11h 41m
Waning Gibbous, 82% of the Moon is Illuminated
Oct 4
Waning Gibbous
Oct 8
Last Quarter
Oct 15
New
Oct 21
First Quarter
Oct 29
Full

Hourly Weather History & Observations

Time (EDT) Temp. Dew Point Humidity Pressure Visibility Wind Dir Wind Speed Gust Speed Precip Events Conditions
12:54 AM 62.1 °F 57.9 °F 86% 30.19 in 10.0 mi SE 3.5 mph - N/A   Clear
1:54 AM 62.1 °F 57.9 °F 86% 30.19 in 10.0 mi Calm Calm - N/A   Scattered Clouds
2:54 AM 60.1 °F 57.0 °F 90% 30.19 in 9.0 mi Calm Calm - N/A   Clear
3:54 AM 57.9 °F 55.9 °F 93% 30.19 in 10.0 mi NNW 4.6 mph - N/A   Clear
4:54 AM 57.9 °F 55.9 °F 93% 30.21 in 10.0 mi Calm Calm - N/A   Partly Cloudy
5:08 AM 57.2 °F 57.2 °F 100% 30.27 in 10.0 mi NNW 4.6 mph - N/A   Mostly Cloudy
5:27 AM 59.0 °F 57.2 °F 94% 30.27 in 10.0 mi NNW 3.5 mph - N/A   Scattered Clouds
5:54 AM 59.0 °F 57.0 °F 93% 30.22 in 10.0 mi North 4.6 mph - N/A   Partly Cloudy
6:54 AM 59.0 °F 55.9 °F 90% 30.23 in 10.0 mi North 6.9 mph - N/A   Clear
7:54 AM 59.0 °F 55.9 °F 90% 30.25 in 10.0 mi NNW 9.2 mph - N/A   Clear
8:54 AM 60.1 °F 55.9 °F 86% 30.26 in 10.0 mi North 8.1 mph - N/A   Clear
9:54 AM 64.0 °F 55.9 °F 75% 30.27 in 10.0 mi NNW 11.5 mph - N/A   Clear
10:54 AM 66.0 °F 55.9 °F 70% 30.27 in 10.0 mi NNW 11.5 mph - N/A   Partly Cloudy
11:54 AM 69.1 °F 53.1 °F 57% 30.26 in 10.0 mi North 10.4 mph 23.0 mph N/A   Clear
12:54 PM 70.0 °F 53.1 °F 55% 30.25 in 10.0 mi North 11.5 mph - N/A   Clear
1:54 PM 73.0 °F 53.1 °F 49% 30.22 in 10.0 mi NNW 10.4 mph 19.6 mph N/A   Clear
2:54 PM 73.0 °F 52.0 °F 48% 30.21 in 10.0 mi NE 4.6 mph - N/A   Partly Cloudy
3:54 PM 73.9 °F 53.1 °F 48% 30.20 in 10.0 mi NNW 8.1 mph - N/A   Overcast
4:54 PM 75.0 °F 52.0 °F 44% 30.19 in 10.0 mi NNW 11.5 mph 16.1 mph N/A   Mostly Cloudy
5:54 PM 72.0 °F 51.1 °F 48% 30.20 in 10.0 mi NNW 10.4 mph - N/A   Clear
6:54 PM 68.0 °F 52.0 °F 56% 30.21 in 10.0 mi NNW 8.1 mph - N/A   Mostly Cloudy
7:54 PM 64.0 °F 52.0 °F 65% 30.22 in 10.0 mi NNW 6.9 mph - N/A   Mostly Cloudy
8:54 PM 62.1 °F 52.0 °F 70% 30.23 in 10.0 mi NNW 4.6 mph - N/A   Partly Cloudy
9:54 PM 59.0 °F 53.1 °F 81% 30.24 in 10.0 mi Calm Calm - N/A   Clear
10:54 PM 57.0 °F 53.1 °F 87% 30.26 in 10.0 mi Calm Calm - N/A   Clear
11:54 PM 55.0 °F 52.0 °F 89% 30.26 in 10.0 mi Calm Calm - N/A   Clear